Terug naar catalogus

STARLINK-36390

ActiefCommunicatieSSO
NORAD 67886·PAYLOAD·🇺🇸 United States

Gelanceerd Feb 21, 2026 vanaf Vandenberg Space Force Base

Loading…

Volgende Passages (komende 24 uur)

TLE

VersSource: CelesTrak SupGP

Epoch: Sep 14, 2026, 21:39 UTC

1 67886C 26035H   26257.90256944 -.00051766  00000+0 -16071-2 0  2572
2 67886  97.2844 189.7718 0001803  94.4071 181.6803 15.33461061    17

Volg STARLINK-36390 in realtime met AllMySat

Download on the App Store